Ardmore Downtown, OK

3:35 PM CST on December 09, 2019 (GMT -0600)
Ardmore Downtown

Weather History for K1F0 - November, 2019

Change the Weather History Date:

Tuesday, November 19, 2019

  Actual Average (WUND) Record (WUND)
Temperature  
Mean Temperature 58 °F -  
Max Temperature 78 °F - - (-1)
Min Temperature 37 °F - - (-1)
Degree Days  
Heating Degree Days 8    
Growing Degree Days 8 (Base 50)    
Moisture  
Dew Point 36 °F    
Average Humidity 52    
Maximum Humidity 81    
Minimum Humidity 21    
Precipitation  
Precipitation 0.00 in - - ()
Sea Level Pressure  
Sea Level Pressure 29.93 in    
Wind  
Wind Speed 2 mph (SE)    
Max Wind Speed 12 mph    
Max Gust Speed 16 mph    
Visibility 10 miles    
Events      
Averages and records for this station are not official NWS values.
T = Trace of Precipitation, MM = Missing Value Source: NWS Daily Summary

Daily Weather History Graph

Daily Weather History Graph

Search for Another Location

Airport or City:

Astronomy

Nov. 19, 2019 Rise Set
Actual Time 7:04 AM CST 5:22 PM CST
Civil Twilight 6:38 AM CST 5:49 PM CST
Nautical Twilight 6:07 AM CST 6:19 PM CST
Astronomical Twilight 5:37 AM CST 6:49 PM CST
Moon No Moon Rise 1:17 PM CST (11/19)
Length of Visible Light 11h 11m
Length of Day
10h 17m
Waning Gibbous, 51% of the Moon is Illuminated
Nov 19
Waning Gibbous
Nov 19
Last Quarter
Nov 26
New
Dec 4
First Quarter
Dec 11
Full

Hourly Weather History & Observations

Time (CST) Temp. Windchill Dew Point Humidity Pressure Visibility Wind Dir Wind Speed Gust Speed Precip Events Conditions
12:10 AM 42.8 °F - 32.0 °F 66% 29.91 in 10.0 mi Calm Calm - N/A   Clear
12:30 AM 42.8 °F - 32.0 °F 66% 29.91 in 10.0 mi Calm Calm - N/A   Clear
1:10 AM 42.8 °F - 32.0 °F 66% 29.92 in 10.0 mi Calm Calm - N/A   Clear
1:30 AM 42.8 °F - 33.8 °F 70% 29.92 in 10.0 mi Calm Calm - N/A   Clear
1:50 AM 41.0 °F - 32.0 °F 70% 29.91 in 10.0 mi Calm Calm - N/A   Clear
2:10 AM 41.0 °F - 32.0 °F 70% 29.91 in 10.0 mi Calm Calm - N/A   Clear
2:30 AM 41.0 °F - 32.0 °F 70% 29.92 in 10.0 mi Calm Calm - N/A   Clear
2:50 AM 41.0 °F - 32.0 °F 70% 29.91 in 10.0 mi Calm Calm - N/A   Clear
3:30 AM 39.2 °F - 32.0 °F 75% 29.91 in 10.0 mi Calm Calm - N/A   Clear
3:50 AM 39.2 °F - 32.0 °F 75% 29.91 in 10.0 mi Calm Calm - N/A   Clear
4:10 AM 41.0 °F - 32.0 °F 70% 29.91 in 10.0 mi Calm Calm - N/A   Clear
4:30 AM 39.2 °F - 32.0 °F 75% 29.92 in 10.0 mi Calm Calm - N/A   Clear
5:10 AM 39.2 °F - 32.0 °F 75% 29.92 in 10.0 mi Calm Calm - N/A   Clear
5:50 AM 37.4 °F - 32.0 °F 81% 29.93 in 10.0 mi Calm Calm - N/A   Clear
6:10 AM 37.4 °F - 32.0 °F 81% 29.94 in 10.0 mi Calm Calm - N/A   Clear
6:30 AM 37.4 °F - 32.0 °F 81% 29.95 in 10.0 mi Calm Calm - N/A   Clear
6:50 AM 39.2 °F - 33.8 °F 81% 29.96 in 10.0 mi Calm Calm - N/A   Clear
7:10 AM 39.2 °F - 33.8 °F 81% 29.97 in 10.0 mi Calm Calm - N/A   Clear
7:30 AM 41.0 °F 39.0 °F 32.0 °F 70% 29.99 in 10.0 mi NNE 3.5 mph - N/A   Clear
7:50 AM 46.4 °F - 33.8 °F 62% 29.99 in 10.0 mi Calm Calm - N/A   Clear
8:10 AM 50.0 °F - 41.0 °F 71% 29.99 in 10.0 mi Calm Calm - N/A   Clear
8:30 AM 55.4 °F - 44.6 °F 67% 29.99 in 10.0 mi Calm Calm - N/A   Clear
8:50 AM 57.2 °F - 46.4 °F 67% 29.99 in 10.0 mi Calm Calm - N/A   Clear
9:10 AM 60.8 °F - 48.2 °F 63% 30.00 in 10.0 mi Calm Calm - N/A   Clear
9:30 AM 64.4 °F - 50.0 °F 59% 30.00 in 10.0 mi Calm Calm - N/A   Clear
9:50 AM 66.2 °F - 50.0 °F 56% 30.01 in 10.0 mi East 4.6 mph - N/A   Clear
10:10 AM 68.0 °F - 44.6 °F 43% 30.01 in 10.0 mi East 5.8 mph - N/A   Clear
10:50 AM 71.6 °F - 37.4 °F 29% 29.99 in 10.0 mi East 9.2 mph - N/A   Clear
11:10 AM 71.6 °F - 33.8 °F 25% 29.98 in 10.0 mi ESE 9.2 mph - N/A   Clear
11:30 AM 73.4 °F - 33.8 °F 23% 29.97 in 10.0 mi ESE 9.2 mph - N/A   Clear
11:50 AM 73.4 °F - 33.8 °F 23% 29.96 in 10.0 mi ESE 8.1 mph - N/A   Clear
12:10 PM 75.2 °F - 35.6 °F 24% 29.95 in 10.0 mi East 6.9 mph - N/A   Clear
1:10 PM 77.0 °F - 35.6 °F 22% 29.92 in 10.0 mi SE 8.1 mph - N/A   Clear
1:50 PM 78.8 °F - 35.6 °F 21% 29.91 in 10.0 mi SSE 9.2 mph - N/A   Clear
2:30 PM 77.0 °F - 35.6 °F 22% 29.90 in 10.0 mi SSE 8.1 mph - N/A   Clear
2:50 PM 77.0 °F - 35.6 °F 22% 29.90 in 10.0 mi SSE 11.5 mph - N/A   Clear
3:10 PM 77.0 °F - 35.6 °F 22% 29.90 in 10.0 mi SE 11.5 mph 16.1 mph N/A   Clear
3:30 PM 77.0 °F - 35.6 °F 22% 29.89 in 10.0 mi SE 8.1 mph - N/A   Clear
3:50 PM 77.0 °F - 35.6 °F 22% 29.89 in 10.0 mi SE 9.2 mph - N/A   Clear
4:10 PM 77.0 °F - 35.6 °F 22% 29.89 in 10.0 mi SE 6.9 mph - N/A   Clear
4:30 PM 73.4 °F - 35.6 °F 25% 29.88 in 10.0 mi SE 6.9 mph - N/A   Clear
4:50 PM 73.4 °F - 35.6 °F 25% 29.88 in 10.0 mi SE 8.1 mph - N/A   Clear
5:10 PM 69.8 °F - 35.6 °F 28% 29.88 in 10.0 mi SSE 3.5 mph - N/A   Clear
5:30 PM 64.4 °F - 33.8 °F 32% 29.88 in 10.0 mi SSE 3.5 mph - N/A   Clear
6:10 PM 59.0 °F - 33.8 °F 39% 29.88 in 10.0 mi Calm Calm - N/A   Clear
6:30 PM 59.0 °F - 33.8 °F 39% 29.89 in 1.8 mi Calm Calm - N/A   Haze
6:50 PM 59.0 °F - 32.0 °F 36% 29.89 in 10.0 mi Calm Calm - N/A   Clear
7:10 PM 57.2 °F - 32.0 °F 38% 29.89 in 10.0 mi Calm Calm - N/A   Clear
8:10 PM 55.4 °F - 37.4 °F 51% 29.89 in 10.0 mi SE 5.8 mph - N/A   Clear
8:50 PM 59.0 °F - 39.2 °F 48% 29.90 in 10.0 mi SSE 5.8 mph - N/A   Clear
9:10 PM 59.0 °F - 41.0 °F 51% 29.91 in 10.0 mi SSE 3.5 mph - N/A   Clear
9:30 PM 55.4 °F - 41.0 °F 58% 29.91 in 10.0 mi South 3.5 mph - N/A   Clear
9:50 PM 55.4 °F - 41.0 °F 58% 29.91 in 10.0 mi SSE 3.5 mph - N/A   Clear
10:10 PM 55.4 °F - 39.2 °F 54% 29.91 in 10.0 mi SSE 3.5 mph - N/A   Clear
10:30 PM 53.6 °F - 41.0 °F 62% 29.91 in 10.0 mi SE 4.6 mph - N/A   Clear
11:10 PM 53.6 °F - 41.0 °F 62% 29.91 in 10.0 mi SSE 3.5 mph - N/A   Clear
11:30 PM 53.6 °F - 41.0 °F 62% 29.91 in 10.0 mi SSE 3.5 mph - N/A   Clear